Home > Weather > Sioux Falls > Past weeks

Flag for U.S.A. Weather for the Past 2 Weeks in Sioux Falls, South Dakota, U.S.A.

Now
17 °F

Mostly cloudy.


Feels Like: 4 °F
Forecast: 13 / 28 °F
Wind: 12 mph from South

Location: Foss Field

Current Time: Feb 14, 2016 at 11:04:08 AM

Latest Report: Feb 14, 2016 at 9:56 AM


Visibility: 10 mi

Pressure: 29.94 "Hg

Humidity: 80%

Dew point: 12 °F

Location of Sioux FallsLocation

Historic Weather in Sioux Falls — Graph

°F

Sioux Falls Temperature Yesterday

Maximum temperature yesterday: 13 °F (at 9:56 PM)
Minimum temperature yesterday: -3 °F (at 12:56 AM)
Average temperature yesterday: 6 °F

High & Low Weather Summary for the Past Weeks

 TemperatureHumidityPressure
High41 °F (Jan 30, 2:56 PM)96% (Feb 1, 9:56 AM)30.73 "Hg (Feb 1, 9:56 AM)
Low-3 °F (Feb 13, 12:56 AM)57% (Feb 9, 11:56 AM)29.50 "Hg (Jan 30, 12:56 PM)
Average22 °F77%30.12 "Hg
* Reported Jan 30 9:56 AM — Feb 14 9:56 AM, Sioux Falls, Weather by CustomWeather, © 2016

Note: Actual official high and low records may vary slightly from our data, if they occured in-between our weather recording intervals... More about our weather records

Advertising

Sioux Falls Weather History for the Previous 24 Hours

 ConditionsComfort  
Time TempWeatherWind HumidityBarometerVisibility
9:56 AM
Sun, Feb 14
17 °FMostly cloudy.12 mph80%29.94 "Hg10 mi
8:56 AM15 °FMostly cloudy.12 mph83%29.94 "Hg10 mi
7:56 AM14 °FMostly cloudy.10 mph84%29.95 "Hg10 mi
6:56 AM14 °FIce fog.10 mph84%29.96 "Hg6 mi
6:03 AM14 °FLight snow. Ice fog.12 mph80%29.88 "Hg5 mi
4:56 AM14 °FLight snow. Overcast.13 mph80%29.98 "Hg1 mi
3:56 AM14 °FLight snow. Overcast.15 mph80%30.01 "Hg3 mi
2:56 AM14 °FOvercast.15 mph77%30.04 "Hg10 mi
1:56 AM13 °FLight snow. Overcast.13 mph81%30.08 "Hg4 mi
12:56 AM13 °FOvercast.17 mph77%30.10 "Hg9 mi
11:56 PM
Sat, Feb 13
13 °FLight snow. Overcast.16 mph77%30.17 "Hg9 mi
10:56 PM13 °FLight snow. Overcast.18 mph77%30.17 "Hg5 mi
9:56 PM13 °FOvercast.16 mph74%30.20 "Hg6 mi
8:56 PM12 °FLight snow. Overcast.22 mph80%30.22 "Hg3 mi
7:56 PM11 °FLight snow. Ice fog.20 mph84%30.27 "Hg1 mi
6:56 PM11 °FLight snow. Overcast.20 mph77%30.30 "Hg9 mi
5:56 PM11 °FOvercast.14 mph70%30.32 "Hg10 mi
4:56 PM11 °FOvercast.15 mph64%30.35 "Hg10 mi
3:56 PM10 °FLight snow. Overcast.14 mph64%30.39 "Hg9 mi
2:56 PM9 °FLight snow. Overcast.17 mph64%30.41 "Hg9 mi
1:56 PM8 °FOvercast.15 mph63%30.45 "Hg10 mi
12:56 PM7 °FOvercast.12 mph66%30.50 "Hg10 mi
11:56 AM6 °FOvercast.13 mph66%30.54 "Hg10 mi
Weather by CustomWeather, © 2016

See weather overviewHow to use our weather pages